Time,TemperatureF,DewpointF,PressureIn,WindDirection,WindDirectionDegrees,WindSpeedMPH,WindSpeedGustMPH,Humidity,HourlyPrecipIn,Conditions,Clouds,dailyrainin,SoftwareType,DateUTC
2013-07-03 00:00:00,58.0,-99.9,-100.00,North,-999,-999.0,-999.0,-999,-99.99,,,0.81,,2013-07-03 07:00:00,
2013-07-03 01:00:00,59.0,-99.9,-100.00,North,-999,-999.0,-999.0,-999,-99.99,,,0.81,,2013-07-03 08:00:00,
2013-07-03 02:00:00,56.0,-99.9,-100.00,North,-999,-999.0,-999.0,-999,-99.99,,,0.81,,2013-07-03 09:00:00,
2013-07-03 03:00:00,56.0,-99.9,-100.00,North,-999,-999.0,-999.0,-999,-99.99,,,0.81,,2013-07-03 10:00:00,
2013-07-03 03:59:00,56.0,-99.9,-100.00,North,-999,-999.0,-999.0,-999,-99.99,,,0.81,,2013-07-03 10:59:00,
2013-07-03 04:00:00,57.0,-99.9,-100.00,North,-999,-999.0,-999.0,-999,-99.99,,,0.81,,2013-07-03 11:00:00,
2013-07-03 05:00:00,54.0,-99.9,-100.00,North,-999,-999.0,-999.0,-999,-99.99,,,0.81,,2013-07-03 12:00:00,
2013-07-03 06:00:00,54.0,-99.9,-100.00,North,-999,-999.0,-999.0,-999,-99.99,,,0.82,,2013-07-03 13:00:00,
2013-07-03 08:00:00,57.0,-99.9,-100.00,North,-999,-999.0,-999.0,-999,-99.99,,,0.82,,2013-07-03 15:00:00,
2013-07-03 09:00:00,64.0,-99.9,-100.00,North,-999,-999.0,-999.0,-999,-99.99,,,0.01,,2013-07-03 16:00:00,
2013-07-03 10:00:00,68.0,-99.9,-100.00,North,-999,-999.0,-999.0,-999,-99.99,,,0.00,,2013-07-03 17:00:00,
2013-07-03 10:59:00,68.0,-99.9,-100.00,North,-999,-999.0,-999.0,-999,-99.99,,,0.00,,2013-07-03 17:59:00,
2013-07-03 11:00:00,70.0,-99.9,-100.00,North,-999,-999.0,-999.0,-999,-99.99,,,0.00,,2013-07-03 18:00:00,
2013-07-03 12:00:00,72.0,-99.9,-100.00,North,-999,-999.0,-999.0,-999,-99.99,,,0.00,,2013-07-03 19:00:00,
2013-07-03 14:00:00,68.0,-99.9,-100.00,North,-999,-999.0,-999.0,-999,-99.99,,,0.00,,2013-07-03 21:00:00,
2013-07-03 15:00:00,72.0,-99.9,-100.00,North,-999,-999.0,-999.0,-999,-99.99,,,-99.99,,2013-07-03 22:00:00,
2013-07-03 16:00:00,72.0,-99.9,-100.00,North,-999,-999.0,-999.0,-999,-99.99,,,-99.99,,2013-07-03 23:00:00,
2013-07-03 17:00:00,67.0,-99.9,-100.00,North,-999,-999.0,-999.0,-999,-99.99,,,-99.99,,2013-07-04 00:00:00,
2013-07-03 19:00:00,63.0,-99.9,-100.00,North,-999,-999.0,-999.0,-999,-99.99,,,-99.99,,2013-07-04 02:00:00,
2013-07-03 20:00:00,62.0,-99.9,-100.00,North,-999,-999.0,-999.0,-999,-99.99,,,0.00,,2013-07-04 03:00:00,
2013-07-03 21:00:00,60.0,-99.9,-100.00,North,-999,-999.0,-999.0,-999,-99.99,,,0.00,,2013-07-04 04:00:00,
2013-07-03 22:00:00,61.0,-99.9,-100.00,North,-999,-999.0,-999.0,-999,-99.99,,,-99.99,,2013-07-04 05:00:00,
2013-07-03 23:00:00,62.0,-99.9,-100.00,North,-999,-999.0,-999.0,-999,-99.99,,,-99.99,,2013-07-04 06:00:00,
2013-07-03 23:53:00,62.0,-99.9,-100.00,North,-999,-999.0,-999.0,-999,-99.99,,,-99.99,,2013-07-04 06:53:00,